Location: Alsip
(41.6689°N, 87.7387°W)
Time: 13:35:47
(UTC+00:00)

Thor Agena Rocket - Pass Details

Date: 14 July 2020
Orbit: 759 x 808 km, 99.0° (Epoch: 04 August)

Event Time Altitude Azimuth Distance (km) Brightness Sun altitude
Rises 04:14:40 0° 19° (NNE) 3,240 7.4 -22.4°
Reaches altitude 10° 04:17:03 10° 24° (NNE) 2,305 6.5 -22.6°
Maximum altitude 04:21:59 51° 101° (E) 955 3.7 -23.0°
Enters shadow 04:22:13 50° 111° (ESE) 961 3.7 -23.0°
